Time,TemperatureF,DewpointF,PressureIn,WindDirection,WindDirectionDegrees,WindSpeedMPH,WindSpeedGustMPH,Humidity,HourlyPrecipIn,Conditions,Clouds,dailyrainin,SoftwareType,DateUTC
2013-10-17 00:00:00,39.3,34.9,29.12,North,0,0.0,0.0,84,0.00,,---,0.00,VWS V13.01,2013-10-17 05:00:00,
2013-10-17 00:05:00,39.3,34.9,29.13,North,0,0.0,0.0,84,0.00,,---,0.00,VWS V13.01,2013-10-17 05:05:00,
2013-10-17 00:11:00,39.3,34.9,29.13,North,0,0.0,0.0,84,0.00,,---,0.00,VWS V13.01,2013-10-17 05:11:00,
2013-10-17 00:16:00,39.3,34.9,29.13,North,0,0.0,0.0,84,0.00,,---,0.00,VWS V13.01,2013-10-17 05:16:00,
2013-10-17 00:21:00,39.0,34.6,29.12,North,0,0.0,0.0,84,0.00,,---,0.00,VWS V13.01,2013-10-17 05:21:00,
2013-10-17 00:27:00,39.0,34.6,29.12,North,0,0.0,0.0,84,0.00,,---,0.00,VWS V13.01,2013-10-17 05:27:00,
2013-10-17 00:32:00,39.0,34.6,29.12,North,0,0.0,0.0,84,0.00,,---,0.00,VWS V13.01,2013-10-17 05:32:00,
2013-10-17 00:37:00,39.0,34.6,29.12,North,0,0.0,0.0,84,0.00,,---,0.00,VWS V13.01,2013-10-17 05:37:00,
2013-10-17 00:42:00,38.8,34.4,29.12,North,0,0.0,0.0,84,0.00,,---,0.00,VWS V13.01,2013-10-17 05:42:00,
2013-10-17 00:47:00,38.8,34.4,29.12,North,0,0.0,0.0,84,0.00,,---,0.00,VWS V13.01,2013-10-17 05:47:00,
2013-10-17 00:52:00,38.8,34.4,29.12,North,0,0.0,0.0,84,0.00,,---,0.00,VWS V13.01,2013-10-17 05:52:00,
2013-10-17 00:57:00,38.6,34.2,29.12,North,0,0.0,0.0,84,0.00,,---,0.00,VWS V13.01,2013-10-17 05:57:00,
2013-10-17 01:02:00,38.4,34.0,29.12,North,0,0.0,0.0,84,0.00,,---,0.00,VWS V13.01,2013-10-17 06:02:00,
2013-10-17 01:07:00,38.4,34.0,29.12,North,0,0.0,0.0,84,0.00,,---,0.00,VWS V13.01,2013-10-17 06:07:00,
2013-10-17 01:12:00,38.4,34.0,29.11,North,0,0.0,0.0,84,0.00,,---,0.00,VWS V13.01,2013-10-17 06:12:00,
2013-10-17 01:17:00,38.4,34.0,29.11,North,0,0.0,0.0,84,0.00,,---,0.00,VWS V13.01,2013-10-17 06:17:00,
2013-10-17 01:22:00,38.3,33.9,29.11,North,0,0.0,0.0,84,0.00,,---,0.00,VWS V13.01,2013-10-17 06:22:00,
2013-10-17 01:27:00,38.3,33.9,29.11,North,0,0.0,0.0,84,0.00,,---,0.00,VWS V13.01,2013-10-17 06:27:00,
2013-10-17 01:32:00,38.1,33.7,29.11,North,0,0.0,0.0,84,0.00,,---,0.00,VWS V13.01,2013-10-17 06:32:00,
2013-10-17 01:37:00,38.1,33.7,29.11,North,0,0.0,0.0,84,0.00,,---,0.00,VWS V13.01,2013-10-17 06:37:00,
2013-10-17 01:42:00,37.9,33.5,29.11,North,0,0.0,0.0,84,0.00,,---,0.00,VWS V13.01,2013-10-17 06:42:00,
2013-10-17 01:48:00,37.9,33.5,29.11,North,0,0.0,0.0,84,0.00,,---,0.00,VWS V13.01,2013-10-17 06:48:00,
2013-10-17 01:53:00,37.9,33.5,29.11,North,0,0.0,0.0,84,0.00,,---,0.00,VWS V13.01,2013-10-17 06:53:00,
2013-10-17 01:59:00,37.9,33.5,29.11,North,0,0.0,0.0,84,0.00,,---,0.00,VWS V13.01,2013-10-17 06:59:00,
2013-10-17 02:04:00,37.7,33.3,29.11,North,0,0.0,0.0,84,0.00,,---,0.00,VWS V13.01,2013-10-17 07:04:00,
2013-10-17 02:09:00,37.7,33.3,29.11,North,0,0.0,0.0,84,0.00,,---,0.00,VWS V13.01,2013-10-17 07:09:00,
2013-10-17 02:14:00,37.5,33.1,29.11,North,0,0.0,0.0,84,0.00,,---,0.00,VWS V13.01,2013-10-17 07:14:00,
2013-10-17 02:19:00,37.5,33.1,29.11,North,0,0.0,0.0,84,0.00,,---,0.00,VWS V13.01,2013-10-17 07:19:00,
2013-10-17 02:24:00,37.4,33.0,29.11,North,0,0.0,0.0,84,0.00,,---,0.00,VWS V13.01,2013-10-17 07:24:00,
2013-10-17 02:29:00,37.4,33.0,29.11,North,0,0.0,0.0,84,0.00,,---,0.00,VWS V13.01,2013-10-17 07:29:00,
2013-10-17 02:34:00,37.2,32.8,29.11,North,0,0.0,0.0,84,0.00,,---,0.00,VWS V13.01,2013-10-17 07:34:00,
2013-10-17 02:40:00,37.2,32.8,29.11,North,0,0.0,0.0,84,0.00,,---,0.00,VWS V13.01,2013-10-17 07:40:00,
2013-10-17 02:45:00,37.2,32.8,29.11,North,0,0.0,0.0,84,0.00,,---,0.00,VWS V13.01,2013-10-17 07:45:00,
2013-10-17 02:50:00,37.2,32.8,29.10,North,0,0.0,0.0,84,0.00,,---,0.00,VWS V13.01,2013-10-17 07:50:00,
2013-10-17 02:56:00,37.2,32.8,29.10,North,0,0.0,0.0,84,0.00,,---,0.00,VWS V13.01,2013-10-17 07:56:00,
2013-10-17 03:01:00,37.0,32.9,29.10,North,0,0.0,0.0,85,0.00,,---,0.00,VWS V13.01,2013-10-17 08:01:00,
2013-10-17 03:06:00,37.0,32.6,29.09,North,0,0.0,0.0,84,0.00,,---,0.00,VWS V13.01,2013-10-17 08:06:00,
2013-10-17 03:11:00,37.0,32.6,29.09,North,0,0.0,0.0,84,0.00,,---,0.00,VWS V13.01,2013-10-17 08:11:00,
2013-10-17 03:15:00,37.0,32.9,29.09,North,0,0.0,0.0,85,0.00,,---,0.00,VWS V13.01,2013-10-17 08:15:00,
2013-10-17 03:20:00,36.8,32.7,29.09,North,0,0.0,0.0,85,0.00,,---,0.00,VWS V13.01,2013-10-17 08:20:00,
2013-10-17 03:25:00,36.8,32.7,29.09,North,0,0.0,0.0,85,0.00,,---,0.00,VWS V13.01,2013-10-17 08:25:00,
2013-10-17 03:30:00,36.8,32.7,29.09,North,0,0.0,0.0,85,0.00,,---,0.00,VWS V13.01,2013-10-17 08:30:00,
2013-10-17 03:35:00,36.6,32.5,29.09,North,0,0.0,0.0,85,0.00,,---,0.00,VWS V13.01,2013-10-17 08:35:00,
2013-10-17 03:40:00,36.5,32.4,29.09,North,0,0.0,0.0,85,0.00,,---,0.00,VWS V13.01,2013-10-17 08:40:00,
2013-10-17 03:45:00,36.5,32.4,29.09,North,0,0.0,0.0,85,0.00,,---,0.00,VWS V13.01,2013-10-17 08:45:00,
2013-10-17 03:50:00,36.3,32.2,29.09,North,0,0.0,0.0,85,0.00,,---,0.00,VWS V13.01,2013-10-17 08:50:00,
2013-10-17 03:55:00,36.3,32.2,29.09,North,0,0.0,0.0,85,0.00,,---,0.00,VWS V13.01,2013-10-17 08:55:00,
2013-10-17 04:00:00,36.3,32.2,29.08,North,0,0.0,0.0,85,0.00,,---,0.00,VWS V13.01,2013-10-17 09:00:00,
2013-10-17 04:05:00,36.3,32.2,29.08,North,0,0.0,0.0,85,0.00,,---,0.00,VWS V13.01,2013-10-17 09:05:00,
2013-10-17 04:10:00,36.3,32.2,29.07,North,0,0.0,0.0,85,0.00,,---,0.00,VWS V13.01,2013-10-17 09:10:00,
2013-10-17 04:15:00,36.3,32.2,29.07,North,0,0.0,0.0,85,0.00,,---,0.00,VWS V13.01,2013-10-17 09:15:00,
2013-10-17 04:21:00,36.3,32.2,29.07,North,0,0.0,0.0,85,0.00,,---,0.00,VWS V13.01,2013-10-17 09:21:00,
2013-10-17 04:26:00,36.3,32.2,29.07,North,0,0.0,0.0,85,0.00,,---,0.00,VWS V13.01,2013-10-17 09:26:00,
2013-10-17 04:31:00,36.3,32.2,29.07,North,0,0.0,0.0,85,0.00,,---,0.00,VWS V13.01,2013-10-17 09:31:00,
2013-10-17 04:36:00,36.5,32.4,29.07,North,0,0.0,0.0,85,0.00,,---,0.00,VWS V13.01,2013-10-17 09:36:00,
2013-10-17 04:41:00,36.5,32.4,29.07,North,0,0.0,0.0,85,0.00,,---,0.00,VWS V13.01,2013-10-17 09:41:00,
2013-10-17 04:46:00,36.3,32.2,29.07,North,0,0.0,0.0,85,0.00,,---,0.00,VWS V13.01,2013-10-17 09:46:00,
2013-10-17 04:51:00,36.3,32.2,29.07,North,0,0.0,0.0,85,0.00,,---,0.00,VWS V13.01,2013-10-17 09:51:00,
2013-10-17 04:56:00,36.3,32.2,29.06,North,0,0.0,0.0,85,0.00,,---,0.00,VWS V13.01,2013-10-17 09:56:00,
2013-10-17 05:01:00,36.3,32.2,29.07,North,0,0.0,0.0,85,0.00,,---,0.00,VWS V13.01,2013-10-17 10:01:00,
2013-10-17 05:06:00,36.3,32.2,29.07,North,0,0.0,0.0,85,0.00,,---,0.00,VWS V13.01,2013-10-17 10:06:00,
2013-10-17 05:11:00,36.3,32.2,29.07,North,0,0.0,0.0,85,0.00,,---,0.00,VWS V13.01,2013-10-17 10:11:00,
2013-10-17 05:16:00,36.3,32.2,29.07,North,0,0.0,0.0,85,0.00,,---,0.00,VWS V13.01,2013-10-17 10:16:00,
2013-10-17 05:21:00,36.3,32.2,29.07,North,0,0.0,0.0,85,0.00,,---,0.00,VWS V13.01,2013-10-17 10:21:00,
2013-10-17 05:26:00,36.3,32.2,29.07,North,0,0.0,0.0,85,0.00,,---,0.00,VWS V13.01,2013-10-17 10:26:00,
2013-10-17 05:31:00,36.1,32.0,29.06,North,0,0.0,0.0,85,0.00,,---,0.00,VWS V13.01,2013-10-17 10:31:00,
2013-10-17 05:36:00,36.1,32.0,29.06,North,0,0.0,0.0,85,0.00,,---,0.00,VWS V13.01,2013-10-17 10:36:00,
2013-10-17 05:41:00,36.1,32.0,29.07,North,0,0.0,0.0,85,0.00,,---,0.00,VWS V13.01,2013-10-17 10:41:00,
2013-10-17 05:46:00,36.1,32.0,29.06,North,0,0.0,0.0,85,0.00,,---,0.00,VWS V13.01,2013-10-17 10:46:00,
2013-10-17 05:51:00,35.9,31.8,29.06,North,0,0.0,0.0,85,0.00,,---,0.00,VWS V13.01,2013-10-17 10:51:00,
2013-10-17 05:56:00,35.9,31.8,29.06,North,0,0.0,0.0,85,0.00,,---,0.00,VWS V13.01,2013-10-17 10:56:00,
2013-10-17 06:01:00,36.1,32.0,29.07,North,0,0.0,0.0,85,0.00,,---,0.00,VWS V13.01,2013-10-17 11:01:00,
2013-10-17 06:06:00,35.9,31.8,29.06,North,0,0.0,0.0,85,0.00,,---,0.00,VWS V13.01,2013-10-17 11:06:00,
2013-10-17 06:11:00,36.1,32.0,29.06,North,0,0.0,0.0,85,0.00,,---,0.00,VWS V13.01,2013-10-17 11:11:00,
2013-10-17 06:16:00,36.1,32.0,29.06,North,0,0.0,0.0,85,0.00,,---,0.00,VWS V13.01,2013-10-17 11:16:00,
2013-10-17 06:21:00,35.9,31.8,29.06,North,0,0.0,0.0,85,0.00,,---,0.00,VWS V13.01,2013-10-17 11:21:00,
2013-10-17 06:26:00,35.9,31.8,29.06,North,0,0.0,0.0,85,0.00,,---,0.00,VWS V13.01,2013-10-17 11:26:00,
2013-10-17 06:31:00,35.9,31.8,29.06,North,0,0.0,0.0,85,0.00,,---,0.00,VWS V13.01,2013-10-17 11:31:00,
2013-10-17 06:36:00,35.9,31.8,29.06,North,0,0.0,0.0,85,0.00,,---,0.00,VWS V13.01,2013-10-17 11:36:00,
2013-10-17 06:41:00,35.7,31.6,29.06,North,0,0.0,0.0,85,0.00,,---,0.00,VWS V13.01,2013-10-17 11:41:00,
2013-10-17 06:46:00,35.7,31.9,29.06,North,0,0.0,0.0,86,0.00,,---,0.00,VWS V13.01,2013-10-17 11:46:00,
2013-10-17 06:51:00,35.7,31.6,29.06,North,0,0.0,0.0,85,0.00,,---,0.00,VWS V13.01,2013-10-17 11:51:00,
2013-10-17 06:56:00,35.7,31.9,29.07,North,0,0.0,0.0,86,0.00,,---,0.00,VWS V13.01,2013-10-17 11:56:00,
2013-10-17 07:01:00,35.7,31.9,29.06,North,0,0.0,0.0,86,0.00,,---,0.00,VWS V13.01,2013-10-17 12:01:00,
2013-10-17 07:06:00,35.4,31.6,29.07,North,0,0.0,0.0,86,0.00,,---,0.00,VWS V13.01,2013-10-17 12:06:00,
2013-10-17 07:11:00,35.4,31.6,29.07,North,0,0.0,0.0,86,0.00,,---,0.00,VWS V13.01,2013-10-17 12:11:00,
2013-10-17 07:16:00,35.4,31.6,29.06,North,0,0.0,0.0,86,0.00,,---,0.00,VWS V13.01,2013-10-17 12:16:00,
2013-10-17 07:21:00,35.4,31.6,29.06,North,0,0.0,0.0,86,0.00,,---,0.00,VWS V13.01,2013-10-17 12:21:00,
2013-10-17 07:26:00,35.4,31.6,29.06,North,0,0.0,0.0,86,0.00,,---,0.00,VWS V13.01,2013-10-17 12:26:00,
2013-10-17 07:31:00,35.2,31.4,29.06,North,0,0.0,0.0,86,0.00,,---,0.00,VWS V13.01,2013-10-17 12:31:00,
2013-10-17 07:36:00,35.2,31.4,29.07,North,0,0.0,0.0,86,0.00,,---,0.00,VWS V13.01,2013-10-17 12:36:00,
2013-10-17 07:41:00,35.2,31.4,29.06,North,0,0.0,0.0,86,0.00,,---,0.00,VWS V13.01,2013-10-17 12:41:00,
2013-10-17 07:46:00,35.2,31.4,29.07,North,0,0.0,0.0,86,0.00,,---,0.00,VWS V13.01,2013-10-17 12:46:00,
2013-10-17 07:51:00,35.2,31.4,29.07,North,0,0.0,0.0,86,0.00,,---,0.00,VWS V13.01,2013-10-17 12:51:00,
2013-10-17 07:56:00,35.2,31.4,29.06,North,0,0.0,0.0,86,0.00,,---,0.00,VWS V13.01,2013-10-17 12:56:00,
2013-10-17 08:01:00,35.2,31.4,29.07,North,0,0.0,0.0,86,0.00,,---,0.00,VWS V13.01,2013-10-17 13:01:00,
2013-10-17 08:06:00,35.2,31.4,29.07,North,0,0.0,0.0,86,0.00,,---,0.00,VWS V13.01,2013-10-17 13:06:00,
2013-10-17 08:11:00,35.2,31.4,29.07,North,0,0.0,0.0,86,0.00,,---,0.00,VWS V13.01,2013-10-17 13:11:00,
2013-10-17 08:16:00,35.2,31.4,29.07,North,0,0.0,0.0,86,0.00,,---,0.00,VWS V13.01,2013-10-17 13:16:00,
2013-10-17 08:21:00,35.2,31.4,29.07,North,0,0.0,0.0,86,0.00,,---,0.00,VWS V13.01,2013-10-17 13:21:00,
2013-10-17 08:26:00,35.2,31.4,29.07,North,0,0.0,0.0,86,0.00,,---,0.00,VWS V13.01,2013-10-17 13:26:00,
2013-10-17 08:31:00,35.2,31.4,29.07,North,0,0.0,0.0,86,0.00,,---,0.00,VWS V13.01,2013-10-17 13:31:00,
2013-10-17 08:36:00,35.2,31.4,29.06,North,0,0.0,0.0,86,0.00,,---,0.00,VWS V13.01,2013-10-17 13:36:00,
2013-10-17 08:41:00,35.4,31.6,29.06,North,0,0.0,0.0,86,0.00,,---,0.00,VWS V13.01,2013-10-17 13:41:00,
2013-10-17 08:46:00,35.4,31.6,29.06,North,0,0.0,0.0,86,0.00,,---,0.00,VWS V13.01,2013-10-17 13:46:00,
2013-10-17 08:51:00,35.7,31.9,29.07,North,0,0.0,0.0,86,0.00,,---,0.00,VWS V13.01,2013-10-17 13:51:00,
2013-10-17 08:56:00,35.9,32.1,29.07,North,0,0.0,0.0,86,0.00,,---,0.00,VWS V13.01,2013-10-17 13:56:00,
2013-10-17 09:01:00,36.1,32.3,29.07,North,0,0.0,0.0,86,0.00,,---,0.00,VWS V13.01,2013-10-17 14:01:00,
2013-10-17 09:06:00,36.3,32.5,29.07,North,0,0.0,0.0,86,0.00,,---,0.00,VWS V13.01,2013-10-17 14:06:00,
2013-10-17 09:11:00,36.6,32.8,29.07,North,0,0.0,0.0,86,0.00,,---,0.00,VWS V13.01,2013-10-17 14:11:00,
2013-10-17 09:16:00,37.0,33.2,29.07,North,0,0.0,0.0,86,0.00,,---,0.00,VWS V13.01,2013-10-17 14:16:00,
2013-10-17 09:21:00,37.2,33.4,29.07,North,0,0.0,0.0,86,0.00,,---,0.00,VWS V13.01,2013-10-17 14:21:00,
2013-10-17 09:26:00,37.5,33.7,29.07,North,0,0.0,0.0,86,0.00,,---,0.00,VWS V13.01,2013-10-17 14:26:00,
2013-10-17 09:31:00,37.9,34.1,29.07,North,0,0.0,0.0,86,0.00,,---,0.00,VWS V13.01,2013-10-17 14:31:00,
2013-10-17 09:36:00,38.1,34.3,29.07,North,0,0.0,0.0,86,0.00,,---,0.00,VWS V13.01,2013-10-17 14:36:00,
2013-10-17 09:41:00,38.3,34.5,29.06,North,0,0.0,0.0,86,0.00,,---,0.00,VWS V13.01,2013-10-17 14:41:00,
2013-10-17 09:46:00,38.8,35.0,29.07,North,0,0.0,0.0,86,0.00,,---,0.00,VWS V13.01,2013-10-17 14:46:00,
2013-10-17 09:51:00,39.0,35.2,29.07,North,0,0.0,0.0,86,0.00,,---,0.00,VWS V13.01,2013-10-17 14:51:00,
2013-10-17 09:56:00,39.3,35.5,29.07,North,0,0.0,0.0,86,0.00,,---,0.00,VWS V13.01,2013-10-17 14:56:00,
2013-10-17 10:01:00,39.9,36.1,29.07,North,0,0.0,0.0,86,0.00,,---,0.00,VWS V13.01,2013-10-17 15:01:00,
2013-10-17 10:06:00,40.1,36.3,29.07,NW,315,0.0,0.0,86,0.00,,---,0.00,VWS V13.01,2013-10-17 15:06:00,
2013-10-17 10:11:00,40.6,36.8,29.06,NW,315,0.0,0.0,86,0.00,,---,0.00,VWS V13.01,2013-10-17 15:11:00,
2013-10-17 10:16:00,41.1,37.2,29.06,NW,315,0.0,0.0,86,0.00,,---,0.00,VWS V13.01,2013-10-17 15:16:00,
2013-10-17 10:21:00,41.5,37.6,29.06,WNW,292,0.0,0.0,86,0.00,,---,0.00,VWS V13.01,2013-10-17 15:21:00,
2013-10-17 10:26:00,41.9,38.0,29.06,WNW,292,0.0,0.0,86,0.00,,---,0.00,VWS V13.01,2013-10-17 15:26:00,
2013-10-17 10:31:00,42.6,38.7,29.06,WNW,292,0.0,0.0,86,0.00,,---,0.00,VWS V13.01,2013-10-17 15:31:00,
2013-10-17 10:36:00,42.9,38.7,29.06,WNW,292,0.0,0.0,85,0.00,,---,0.00,VWS V13.01,2013-10-17 15:36:00,
2013-10-17 10:41:00,43.3,39.1,29.06,West,270,0.0,0.0,85,0.00,,---,0.00,VWS V13.01,2013-10-17 15:41:00,
2013-10-17 10:46:00,43.8,39.6,29.06,West,270,0.0,0.0,85,0.00,,---,0.00,VWS V13.01,2013-10-17 15:46:00,
2013-10-17 10:51:00,44.4,39.9,29.06,West,270,0.0,0.0,84,0.00,,---,0.00,VWS V13.01,2013-10-17 15:51:00,
2013-10-17 10:56:00,44.9,40.1,29.06,West,270,0.0,0.0,83,0.00,,---,0.00,VWS V13.01,2013-10-17 15:56:00,
2013-10-17 11:01:00,45.6,40.1,29.05,West,270,0.0,0.0,81,0.00,,---,0.00,VWS V13.01,2013-10-17 16:01:00,
2013-10-17 11:06:00,46.5,40.7,29.05,West,270,0.0,0.0,80,0.00,,---,0.00,VWS V13.01,2013-10-17 16:06:00,
2013-10-17 11:11:00,46.9,41.1,29.05,West,270,0.0,0.0,80,0.00,,---,0.00,VWS V13.01,2013-10-17 16:11:00,
2013-10-17 11:16:00,47.8,41.6,29.05,West,270,0.0,0.0,79,0.00,,---,0.00,VWS V13.01,2013-10-17 16:16:00,
2013-10-17 11:21:00,48.0,41.5,29.05,West,270,0.0,0.0,78,0.00,,---,0.00,VWS V13.01,2013-10-17 16:21:00,
2013-10-17 11:26:00,48.3,41.4,29.05,West,270,0.0,0.0,77,0.00,,---,0.00,VWS V13.01,2013-10-17 16:26:00,
2013-10-17 11:31:00,48.9,41.3,29.05,SW,225,0.0,4.8,75,0.00,,---,0.00,VWS V13.01,2013-10-17 16:31:00,
2013-10-17 11:36:00,49.6,42.0,29.05,SW,225,0.0,0.0,75,0.00,,---,0.00,VWS V13.01,2013-10-17 16:36:00,
2013-10-17 11:41:00,50.1,42.2,29.05,SW,225,0.0,0.0,74,0.00,,---,0.00,VWS V13.01,2013-10-17 16:41:00,
2013-10-17 11:46:00,50.9,42.2,29.05,SSW,202,0.0,0.0,72,0.00,,---,0.00,VWS V13.01,2013-10-17 16:46:00,
2013-10-17 11:51:00,51.4,42.3,29.04,SSW,202,0.0,0.0,71,0.00,,---,0.00,VWS V13.01,2013-10-17 16:51:00,
2013-10-17 11:56:00,51.6,42.2,29.05,SW,225,0.0,0.0,70,0.00,,---,0.00,VWS V13.01,2013-10-17 16:56:00,
2013-10-17 12:01:00,51.9,41.3,29.05,West,270,0.0,0.0,67,0.00,,---,0.00,VWS V13.01,2013-10-17 17:01:00,
2013-10-17 12:06:00,51.9,40.9,29.05,West,270,0.0,0.0,66,0.00,,---,0.00,VWS V13.01,2013-10-17 17:06:00,
2013-10-17 12:11:00,52.1,40.7,29.05,West,270,0.0,0.0,65,0.00,,---,0.00,VWS V13.01,2013-10-17 17:11:00,
2013-10-17 12:16:00,52.3,40.5,29.05,SSW,202,0.0,3.4,64,0.00,,---,0.00,VWS V13.01,2013-10-17 17:16:00,
2013-10-17 12:21:00,52.8,41.0,29.05,SSW,202,0.0,0.0,64,0.00,,---,0.00,VWS V13.01,2013-10-17 17:21:00,
2013-10-17 12:26:00,53.2,41.0,29.04,SSW,202,0.0,0.0,63,0.00,,---,0.00,VWS V13.01,2013-10-17 17:26:00,
2013-10-17 12:31:00,53.6,41.3,29.04,SW,225,0.0,0.0,63,0.00,,---,0.00,VWS V13.01,2013-10-17 17:31:00,
2013-10-17 12:36:00,53.7,40.6,29.04,NW,315,2.2,2.2,61,0.00,,---,0.00,VWS V13.01,2013-10-17 17:36:00,
2013-10-17 12:41:00,53.9,39.9,29.04,WSW,248,11.0,11.0,59,0.00,,---,0.00,VWS V13.01,2013-10-17 17:41:00,
2013-10-17 12:46:00,54.3,40.3,29.04,WNW,292,0.0,0.0,59,0.00,,---,0.00,VWS V13.01,2013-10-17 17:46:00,
2013-10-17 12:51:00,54.5,40.5,29.04,NW,315,0.0,0.0,59,0.00,,---,0.00,VWS V13.01,2013-10-17 17:51:00,
2013-10-17 12:56:00,54.6,40.6,29.04,NW,315,0.0,0.0,59,0.00,,---,0.00,VWS V13.01,2013-10-17 17:56:00,
2013-10-17 13:01:00,54.8,40.8,29.03,SSW,202,0.0,0.0,59,0.00,,---,0.00,VWS V13.01,2013-10-17 18:01:00,
2013-10-17 13:06:00,55.0,40.5,29.03,SW,225,0.0,0.0,58,0.00,,---,0.00,VWS V13.01,2013-10-17 18:06:00,
2013-10-17 13:11:00,55.2,41.1,29.03,SW,225,0.0,0.0,59,0.00,,---,0.00,VWS V13.01,2013-10-17 18:11:00,
2013-10-17 13:16:00,55.2,40.7,29.02,West,270,0.0,5.2,58,0.00,,---,0.00,VWS V13.01,2013-10-17 18:16:00,
2013-10-17 13:21:00,55.0,40.1,29.02,WSW,248,0.0,0.0,57,0.00,,---,0.00,VWS V13.01,2013-10-17 18:21:00,
2013-10-17 13:26:00,55.0,40.5,29.03,WSW,248,0.0,0.0,58,0.00,,---,0.00,VWS V13.01,2013-10-17 18:26:00,
2013-10-17 13:31:00,55.2,39.8,29.02,West,270,0.0,0.0,56,0.00,,---,0.00,VWS V13.01,2013-10-17 18:31:00,
2013-10-17 13:36:00,55.5,40.1,29.02,WSW,248,0.0,0.0,56,0.00,,---,0.00,VWS V13.01,2013-10-17 18:36:00,
2013-10-17 13:41:00,56.1,40.6,29.02,SSW,202,20.4,20.4,56,0.00,,---,0.00,VWS V13.01,2013-10-17 18:41:00,
2013-10-17 13:46:00,56.8,40.8,29.02,SSW,202,9.2,9.2,55,0.00,,---,0.00,VWS V13.01,2013-10-17 18:46:00,
2013-10-17 13:51:00,57.3,41.3,29.02,SSW,202,0.0,0.0,55,0.00,,---,0.00,VWS V13.01,2013-10-17 18:51:00,
2013-10-17 13:56:00,57.7,41.2,29.02,SSW,202,12.0,12.0,54,0.00,,---,0.00,VWS V13.01,2013-10-17 18:56:00,
2013-10-17 14:01:00,57.9,40.4,29.02,WSW,248,0.0,0.0,52,0.00,,---,0.00,VWS V13.01,2013-10-17 19:01:00,
2013-10-17 14:06:00,57.7,39.7,29.02,West,270,0.0,0.0,51,0.00,,---,0.00,VWS V13.01,2013-10-17 19:06:00,
2013-10-17 14:11:00,57.3,38.8,29.02,West,270,0.0,0.0,50,0.00,,---,0.00,VWS V13.01,2013-10-17 19:11:00,
2013-10-17 14:16:00,57.7,40.2,29.02,SSW,202,0.0,9.8,52,0.00,,---,0.00,VWS V13.01,2013-10-17 19:16:00,
2013-10-17 14:21:00,58.1,40.1,29.02,NNW,338,0.0,0.0,51,0.00,,---,0.00,VWS V13.01,2013-10-17 19:21:00,
2013-10-17 14:26:00,58.1,40.1,29.02,NW,315,0.0,0.0,51,0.00,,---,0.00,VWS V13.01,2013-10-17 19:26:00,
2013-10-17 14:31:00,58.2,40.7,29.02,SW,225,0.0,0.0,52,0.00,,---,0.00,VWS V13.01,2013-10-17 19:31:00,
2013-10-17 14:36:00,58.4,39.8,29.02,NW,315,0.0,0.0,50,0.00,,---,0.00,VWS V13.01,2013-10-17 19:36:00,
2013-10-17 14:41:00,58.4,39.8,29.01,West,270,0.0,0.0,50,0.00,,---,0.00,VWS V13.01,2013-10-17 19:41:00,
2013-10-17 14:46:00,58.8,40.2,29.01,West,270,0.0,0.0,50,0.00,,---,0.00,VWS V13.01,2013-10-17 19:46:00,
2013-10-17 14:47:00,58.8,40.2,29.01,West,270,0.0,0.0,50,0.00,,---,0.00,VWS V13.01,2013-10-17 19:47:00,
2013-10-17 14:52:00,58.4,39.8,29.00,West,270,0.0,0.0,50,0.00,,---,0.00,VWS V13.01,2013-10-17 19:52:00,
2013-10-17 14:57:00,58.6,40.0,29.01,West,270,0.0,0.0,50,0.00,,---,0.00,VWS V13.01,2013-10-17 19:57:00,
2013-10-17 15:02:00,58.8,40.2,29.00,West,270,3.4,3.4,50,0.00,,---,0.00,VWS V13.01,2013-10-17 20:02:00,
2013-10-17 15:07:00,58.6,39.5,29.01,West,270,0.0,0.0,49,0.00,,---,0.00,VWS V13.01,2013-10-17 20:07:00,
2013-10-17 15:12:00,58.2,39.2,29.00,West,270,0.0,0.0,49,0.00,,---,0.00,VWS V13.01,2013-10-17 20:12:00,
2013-10-17 15:17:00,58.1,39.1,29.00,SW,225,0.0,0.0,49,0.00,,---,0.00,VWS V13.01,2013-10-17 20:17:00,
2013-10-17 15:22:00,58.2,40.2,29.00,SSW,202,0.0,0.0,51,0.00,,---,0.00,VWS V13.01,2013-10-17 20:22:00,
2013-10-17 15:27:00,58.2,39.7,29.01,SSW,202,0.0,0.0,50,0.00,,---,0.00,VWS V13.01,2013-10-17 20:27:00,
2013-10-17 15:32:00,57.9,38.9,29.01,WSW,248,0.0,0.0,49,0.00,,---,0.00,VWS V13.01,2013-10-17 20:32:00,
2013-10-17 15:37:00,57.5,38.5,29.01,SW,225,0.0,0.0,49,0.00,,---,0.00,VWS V13.01,2013-10-17 20:37:00,
2013-10-17 15:42:00,57.0,38.6,29.01,WNW,292,0.0,0.0,50,0.00,,---,0.00,VWS V13.01,2013-10-17 20:42:00,
2013-10-17 15:47:00,56.6,38.2,29.01,WNW,292,0.0,0.0,50,0.00,,---,0.00,VWS V13.01,2013-10-17 20:47:00,
2013-10-17 15:52:00,56.4,38.5,29.01,WNW,292,0.0,0.0,51,0.00,,---,0.00,VWS V13.01,2013-10-17 20:52:00,
2013-10-17 15:57:00,56.4,38.5,29.02,WNW,292,0.0,0.0,51,0.00,,---,0.00,VWS V13.01,2013-10-17 20:57:00,
2013-10-17 16:02:00,56.1,38.2,29.02,WNW,292,0.0,0.0,51,0.00,,---,0.00,VWS V13.01,2013-10-17 21:02:00,
2013-10-17 16:07:00,56.1,38.7,29.01,WSW,248,0.0,0.0,52,0.00,,---,0.00,VWS V13.01,2013-10-17 21:07:00,
2013-10-17 16:12:00,56.1,38.7,29.02,WSW,248,0.0,0.0,52,0.00,,---,0.00,VWS V13.01,2013-10-17 21:12:00,
2013-10-17 16:17:00,55.9,38.5,29.02,WSW,248,0.0,0.0,52,0.00,,---,0.00,VWS V13.01,2013-10-17 21:17:00,
2013-10-17 16:22:00,55.9,38.5,29.02,SW,225,0.0,0.0,52,0.00,,---,0.00,VWS V13.01,2013-10-17 21:22:00,
2013-10-17 16:27:00,55.9,38.0,29.02,WSW,248,0.0,0.0,51,0.00,,---,0.00,VWS V13.01,2013-10-17 21:27:00,
2013-10-17 16:32:00,55.9,38.0,29.02,WSW,248,0.0,0.0,51,0.00,,---,0.00,VWS V13.01,2013-10-17 21:32:00,
2013-10-17 16:37:00,55.7,37.9,29.02,WSW,248,0.0,0.0,51,0.00,,---,0.00,VWS V13.01,2013-10-17 21:37:00,
2013-10-17 16:42:00,55.7,38.4,29.01,WSW,248,0.0,0.0,52,0.00,,---,0.00,VWS V13.01,2013-10-17 21:42:00,
2013-10-17 16:47:00,55.7,38.4,29.01,WSW,248,0.0,0.0,52,0.00,,---,0.00,VWS V13.01,2013-10-17 21:47:00,
2013-10-17 16:52:00,55.7,38.4,29.02,SW,225,0.0,0.0,52,0.00,,---,0.00,VWS V13.01,2013-10-17 21:52:00,
2013-10-17 16:57:00,55.7,38.8,29.02,SW,225,0.0,0.0,53,0.00,,---,0.00,VWS V13.01,2013-10-17 21:57:00,
2013-10-17 17:02:00,55.9,39.0,29.01,South,180,0.0,0.0,53,0.00,,---,0.00,VWS V13.01,2013-10-17 22:02:00,
2013-10-17 17:07:00,55.9,39.0,29.01,South,180,0.0,0.0,53,0.00,,---,0.00,VWS V13.01,2013-10-17 22:07:00,
2013-10-17 17:12:00,55.9,39.0,29.02,South,180,0.0,0.0,53,0.00,,---,0.00,VWS V13.01,2013-10-17 22:12:00,
2013-10-17 17:17:00,56.1,39.2,29.01,South,180,0.0,0.0,53,0.00,,---,0.00,VWS V13.01,2013-10-17 22:17:00,
2013-10-17 17:22:00,56.1,39.2,29.01,South,180,0.0,0.0,53,0.00,,---,0.00,VWS V13.01,2013-10-17 22:22:00,
2013-10-17 17:27:00,56.1,39.2,29.01,South,180,0.0,0.0,53,0.00,,---,0.00,VWS V13.01,2013-10-17 22:27:00,
2013-10-17 17:32:00,55.9,39.0,29.02,South,180,2.6,2.6,53,0.00,,---,0.00,VWS V13.01,2013-10-17 22:32:00,
2013-10-17 17:38:00,55.9,39.0,29.01,South,180,0.0,0.0,53,0.00,,---,0.00,VWS V13.01,2013-10-17 22:38:00,
2013-10-17 17:43:00,55.7,38.8,29.02,South,180,0.0,0.0,53,0.00,,---,0.00,VWS V13.01,2013-10-17 22:43:00,
2013-10-17 17:48:00,55.5,38.7,29.01,South,180,0.0,0.0,53,0.00,,---,0.00,VWS V13.01,2013-10-17 22:48:00,
2013-10-17 17:53:00,55.4,39.0,29.02,South,180,0.0,0.0,54,0.00,,---,0.00,VWS V13.01,2013-10-17 22:53:00,
2013-10-17 17:58:00,55.2,38.9,29.02,South,180,0.0,0.0,54,0.00,,---,0.00,VWS V13.01,2013-10-17 22:58:00,
2013-10-17 18:04:00,55.0,38.7,29.02,South,180,0.0,0.0,54,0.00,,---,0.00,VWS V13.01,2013-10-17 23:04:00,
2013-10-17 18:09:00,54.6,38.8,29.02,South,180,0.0,0.0,55,0.00,,---,0.00,VWS V13.01,2013-10-17 23:09:00,
2013-10-17 18:14:00,54.3,38.5,29.01,South,180,0.0,0.0,55,0.00,,---,0.00,VWS V13.01,2013-10-17 23:14:00,
2013-10-17 18:19:00,54.3,38.5,29.01,South,180,0.0,0.0,55,0.00,,---,0.00,VWS V13.01,2013-10-17 23:19:00,
2013-10-17 18:25:00,53.9,38.6,29.02,South,180,0.0,0.0,56,0.00,,---,0.00,VWS V13.01,2013-10-17 23:25:00,
2013-10-17 18:30:00,53.7,38.4,29.02,South,180,0.0,0.0,56,0.00,,---,0.00,VWS V13.01,2013-10-17 23:30:00,
2013-10-17 18:35:00,53.6,38.3,29.02,South,180,0.0,0.0,56,0.00,,---,0.00,VWS V13.01,2013-10-17 23:35:00,
2013-10-17 18:40:00,53.4,38.6,29.02,South,180,0.0,0.0,57,0.00,,---,0.00,VWS V13.01,2013-10-17 23:40:00,
2013-10-17 18:46:00,53.2,38.4,29.02,South,180,0.0,0.0,57,0.00,,---,0.00,VWS V13.01,2013-10-17 23:46:00,
2013-10-17 18:51:00,53.2,38.4,29.02,South,180,0.0,0.0,57,0.00,,---,0.00,VWS V13.01,2013-10-17 23:51:00,
2013-10-17 18:56:00,52.8,38.5,29.02,South,180,0.0,0.0,58,0.00,,---,0.00,VWS V13.01,2013-10-17 23:56:00,
2013-10-17 19:01:00,52.8,38.5,29.02,South,180,0.0,0.0,58,0.00,,---,0.00,VWS V13.01,2013-10-18 00:01:00,
2013-10-17 19:06:00,52.8,38.5,29.02,South,180,0.0,0.0,58,0.00,,---,0.00,VWS V13.01,2013-10-18 00:06:00,
2013-10-17 19:12:00,52.8,38.5,29.02,South,180,0.0,0.0,58,0.00,,---,0.00,VWS V13.01,2013-10-18 00:12:00,
2013-10-17 19:17:00,52.7,38.3,29.02,South,180,0.0,0.0,58,0.00,,---,0.00,VWS V13.01,2013-10-18 00:17:00,
2013-10-17 19:22:00,52.5,38.2,29.03,South,180,0.0,0.0,58,0.00,,---,0.00,VWS V13.01,2013-10-18 00:22:00,
2013-10-17 19:27:00,52.3,38.0,29.03,South,180,0.0,0.0,58,0.00,,---,0.00,VWS V13.01,2013-10-18 00:27:00,
2013-10-17 19:32:00,52.3,38.0,29.04,NW,315,6.6,6.6,58,0.00,,---,0.00,VWS V13.01,2013-10-18 00:32:00,
2013-10-17 19:37:00,51.9,37.6,29.04,NW,315,0.0,0.0,58,0.00,,---,0.00,VWS V13.01,2013-10-18 00:37:00,
2013-10-17 19:42:00,51.8,37.9,29.04,NW,315,0.0,0.0,59,0.00,,---,0.00,VWS V13.01,2013-10-18 00:42:00,
2013-10-17 19:47:00,51.6,37.8,29.05,NW,315,0.0,0.0,59,0.00,,---,0.00,VWS V13.01,2013-10-18 00:47:00,
2013-10-17 19:52:00,51.4,38.4,29.05,North,0,3.0,5.8,61,0.00,,---,0.00,VWS V13.01,2013-10-18 00:52:00,
2013-10-17 19:57:00,51.4,38.8,29.05,North,0,0.0,0.0,62,0.00,,---,0.00,VWS V13.01,2013-10-18 00:57:00,
2013-10-17 20:02:00,51.0,38.9,29.05,North,0,0.0,0.0,63,0.00,,---,0.00,VWS V13.01,2013-10-18 01:02:00,
2013-10-17 20:07:00,50.9,39.2,29.05,North,0,0.0,0.0,64,0.00,,---,0.00,VWS V13.01,2013-10-18 01:07:00,
2013-10-17 20:12:00,50.7,39.4,29.05,North,0,0.0,0.0,65,0.00,,---,0.00,VWS V13.01,2013-10-18 01:12:00,
2013-10-17 20:17:00,50.7,39.8,29.05,North,0,0.0,0.0,66,0.00,,---,0.00,VWS V13.01,2013-10-18 01:17:00,
2013-10-17 20:22:00,50.5,40.0,29.05,NNW,338,5.2,5.2,67,0.00,,---,0.00,VWS V13.01,2013-10-18 01:22:00,
2013-10-17 20:27:00,50.5,40.3,29.05,NNW,338,2.6,2.6,68,0.00,,---,0.00,VWS V13.01,2013-10-18 01:27:00,
2013-10-17 20:32:00,50.3,40.5,29.05,NNW,338,8.0,8.0,69,0.00,,---,0.00,VWS V13.01,2013-10-18 01:32:00,
2013-10-17 20:37:00,50.1,40.7,29.06,NNW,338,2.6,7.6,70,0.00,,---,0.00,VWS V13.01,2013-10-18 01:37:00,
2013-10-17 20:42:00,49.8,40.4,29.06,NNW,338,7.0,7.0,70,0.00,,---,0.00,VWS V13.01,2013-10-18 01:42:00,
2013-10-17 20:47:00,49.6,40.6,29.06,NNW,338,0.8,0.8,71,0.00,,---,0.00,VWS V13.01,2013-10-18 01:47:00,
2013-10-17 20:52:00,49.2,40.6,29.07,NW,315,9.8,9.8,72,0.00,,---,0.00,VWS V13.01,2013-10-18 01:52:00,
2013-10-17 20:57:00,49.1,40.8,29.07,NNW,338,8.8,8.8,73,0.00,,---,0.00,VWS V13.01,2013-10-18 01:57:00,
2013-10-17 21:02:00,48.9,40.6,29.07,NW,315,3.0,3.0,73,0.00,,---,0.00,VWS V13.01,2013-10-18 02:02:00,
2013-10-17 21:07:00,48.7,40.5,29.07,NNW,338,10.6,12.8,73,0.00,,---,0.00,VWS V13.01,2013-10-18 02:07:00,
2013-10-17 21:12:00,48.5,40.2,29.07,NNW,338,4.0,4.0,73,0.00,,---,0.00,VWS V13.01,2013-10-18 02:12:00,
2013-10-17 21:17:00,48.3,40.4,29.07,NNW,338,16.4,16.4,74,0.00,,---,0.00,VWS V13.01,2013-10-18 02:17:00,
2013-10-17 21:22:00,48.0,40.5,29.07,NNW,338,0.0,6.6,75,0.00,,---,0.00,VWS V13.01,2013-10-18 02:22:00,
2013-10-17 21:27:00,48.0,40.5,29.08,NW,315,0.0,0.0,75,0.00,,---,0.00,VWS V13.01,2013-10-18 02:27:00,
2013-10-17 21:32:00,47.8,40.6,29.08,NNW,338,6.2,6.2,76,0.00,,---,0.00,VWS V13.01,2013-10-18 02:32:00,
2013-10-17 21:37:00,47.6,40.8,29.08,NNW,338,15.6,15.6,77,0.00,,---,0.00,VWS V13.01,2013-10-18 02:37:00,
2013-10-17 21:42:00,47.4,40.6,29.09,WNW,292,18.6,18.6,77,0.00,,---,0.00,VWS V13.01,2013-10-18 02:42:00,
2013-10-17 21:47:00,47.4,40.9,29.08,NW,315,1.6,1.6,78,0.00,,---,0.00,VWS V13.01,2013-10-18 02:47:00,
2013-10-17 21:52:00,47.1,40.6,29.09,WNW,292,13.8,13.8,78,0.00,,---,0.00,VWS V13.01,2013-10-18 02:52:00,
2013-10-17 21:57:00,46.9,40.4,29.09,NNW,338,4.0,4.0,78,0.00,,---,0.00,VWS V13.01,2013-10-18 02:57:00,
2013-10-17 22:03:00,46.2,40.1,29.09,WNW,292,5.8,5.8,79,0.00,,---,0.00,VWS V13.01,2013-10-18 03:03:00,
2013-10-17 22:08:00,46.0,40.2,29.09,WNW,292,12.8,12.8,80,0.00,,---,0.00,VWS V13.01,2013-10-18 03:08:00,
2013-10-17 22:13:00,45.5,39.4,29.08,NNW,338,5.2,5.2,79,0.00,,---,0.00,VWS V13.01,2013-10-18 03:13:00,
2013-10-17 22:18:00,45.1,39.3,29.09,WNW,292,3.0,4.8,80,0.00,,---,0.00,VWS V13.01,2013-10-18 03:18:00,
2013-10-17 22:23:00,44.9,39.1,29.10,NNW,338,6.6,6.6,80,0.00,,---,0.00,VWS V13.01,2013-10-18 03:23:00,
2013-10-17 22:28:00,44.7,39.2,29.09,NNW,338,0.4,4.0,81,0.00,,---,0.00,VWS V13.01,2013-10-18 03:28:00,
2013-10-17 22:33:00,44.4,38.9,29.09,NNW,338,12.0,12.0,81,0.00,,---,0.00,VWS V13.01,2013-10-18 03:33:00,
2013-10-17 22:38:00,44.2,38.8,29.09,NNW,338,7.0,7.0,81,0.00,,---,0.00,VWS V13.01,2013-10-18 03:38:00,
2013-10-17 22:43:00,43.8,38.7,29.09,WNW,292,1.6,13.4,82,0.00,,---,0.00,VWS V13.01,2013-10-18 03:43:00,
2013-10-17 22:48:00,43.7,38.6,29.09,NW,315,0.0,13.4,82,0.00,,---,0.00,VWS V13.01,2013-10-18 03:48:00,
2013-10-17 22:53:00,43.5,38.4,29.09,WNW,292,0.0,0.0,82,0.00,,---,0.00,VWS V13.01,2013-10-18 03:53:00,
2013-10-17 22:58:00,43.1,38.0,29.09,WNW,292,0.0,13.4,82,0.00,,---,0.00,VWS V13.01,2013-10-18 03:58:00,
2013-10-17 23:01:00,43.1,38.0,29.09,West,270,10.2,10.2,82,0.00,,---,0.00,VWS V13.01,2013-10-18 04:01:00,
2013-10-17 23:02:00,43.1,38.0,29.09,West,270,10.2,10.2,82,0.00,,---,0.00,VWS V13.01,2013-10-18 04:02:00,
2013-10-17 23:04:00,42.9,37.8,29.09,WNW,292,2.6,2.6,82,0.00,,---,0.00,VWS V13.01,2013-10-18 04:04:00,
2013-10-17 23:09:00,42.8,38.0,29.09,WNW,292,8.4,8.4,83,0.00,,---,0.00,VWS V13.01,2013-10-18 04:09:00,
2013-10-17 23:10:00,42.8,38.0,29.09,WNW,292,8.4,8.4,83,0.00,,---,0.00,VWS V13.01,2013-10-18 04:10:00,
2013-10-17 23:15:00,42.6,37.8,29.09,WNW,292,5.8,5.8,83,0.00,,---,0.00,VWS V13.01,2013-10-18 04:15:00,
2013-10-17 23:20:00,42.6,37.8,29.09,NW,315,5.8,8.8,83,0.00,,---,0.00,VWS V13.01,2013-10-18 04:20:00,
2013-10-17 23:23:00,42.6,37.8,29.09,NW,315,13.4,13.4,83,0.00,,---,0.00,VWS V13.01,2013-10-18 04:23:00,
2013-10-17 23:28:00,42.4,37.6,29.09,NNW,338,0.0,7.0,83,0.00,,---,0.00,VWS V13.01,2013-10-18 04:28:00,
2013-10-17 23:33:00,42.4,37.6,29.09,NNW,338,0.0,0.0,83,0.00,,---,0.00,VWS V13.01,2013-10-18 04:33:00,
2013-10-17 23:38:00,42.4,37.9,29.10,NNW,338,0.0,0.0,84,0.00,,---,0.00,VWS V13.01,2013-10-18 04:38:00,
2013-10-17 23:43:00,42.4,37.9,29.09,NNW,338,0.0,3.0,84,0.00,,---,0.00,VWS V13.01,2013-10-18 04:43:00,
2013-10-17 23:48:00,42.0,37.5,29.09,NNW,338,0.0,0.0,84,0.00,,---,0.00,VWS V13.01,2013-10-18 04:48:00,
2013-10-17 23:53:00,42.0,37.5,29.09,NNW,338,4.8,4.8,84,0.00,,---,0.00,VWS V13.01,2013-10-18 04:53:00,
2013-10-17 23:58:00,41.9,37.4,29.09,NNW,338,0.0,3.0,84,0.00,,---,0.00,VWS V13.01,2013-10-18 04:58:00,